KD4SN Weather Reports


time (UTC)temp
F
wind
direction
speed
knots
gust
knots
rain 1hr
in
rain 24hr
in
rain mn
in
humidity
%
barometer
mb
20260503200509 63 86 0.9 3.5 0.00 0.00 0.00 28 1017.4
20260503200032 63 67 0.9 3.5 0.00 0.00 0.00 29 1017.5
20260503195507 63 90 0.9 5.2 0.00 0.00 0.00 31 1017.8
20260503195003 63 138 0.9 5.2 0.00 0.00 0.00 27 1017.9
20260503194523 63 86 0.9 5.2 0.00 0.00 0.00 28 1017.9
20260503194007 62 142 1.7 5.2 0.00 0.00 0.00 26 1018.0
20260503193506 62 136 0.9 4.3 0.00 0.00 0.00 31 1018.0
20260503193020 62 57 0.9 3.5 0.00 0.00 0.00 28 1018.1
20260503192509 62 101 0.9 3.5 0.00 0.00 0.00 28 1018.1
20260503192015 61 156 0.9 4.3 0.00 0.00 0.00 27 1018.2
20260503191526 61 82 1.7 5.2 0.00 0.00 0.00 30 1018.4
20260503191009 61 85 1.7 5.2 0.00 0.00 0.00 29 1018.4
20260503190509 60 114 0.0 5.2 0.00 0.00 0.00 28 1018.5
20260503190026 60 111 0.9 5.2 0.00 0.00 0.00 28 1018.4
20260503185510 60 92 0.9 3.5 0.00 0.00 0.00 29 1018.7
20260503185013 60 98 0.9 3.5 0.00 0.00 0.00 30 1018.7
20260503184529 60 63 0.9 3.5 0.00 0.00 0.00 30 1018.8
20260503184006 60 139 0.0 3.5 0.00 0.00 0.00 28 1018.8
20260503183510 59 140 0.9 5.2 0.00 0.00 0.00 30 1018.7
20260503183025 59 13 0.0 5.2 0.00 0.00 0.00 28 1018.7
20260503182507 59 67 0.0 5.2 0.00 0.00 0.00 28 1018.7
20260503182009 59 61 0.9 4.3 0.00 0.00 0.00 31 1018.9
20260503181535 59 117 0.0 2.6 0.00 0.00 0.00 28 1019.0
20260503181008 58 87 0.0 3.5 0.00 0.00 0.00 30 1019.1
20260503180508 58 94 0.9 4.3 0.00 0.00 0.00 29 1019.2
20260503180024 58 119 0.0 4.3 0.00 0.00 0.00 28 1019.3
20260503175507 58 46 0.9 2.6 0.00 0.00 0.00 27 1019.3
20260503175010 58 99 0.9 3.5 0.00 0.00 0.00 30 1019.3
20260503174529 58 132 0.9 3.5 0.00 0.00 0.00 29 1019.5
20260503174011 58 147 0.9 3.5 0.00 0.00 0.00 32 1019.5
20260503173509 58 136 0.0 7.0 0.00 0.00 0.00 28 1019.6
20260503173042 58 79 1.7 7.0 0.00 0.00 0.00 27 1019.8
20260503172506 58 144 0.0 2.6 0.00 0.00 0.00 27 1019.9
20260503172006 57 29 0.9 3.5 0.00 0.00 0.00 28 1020.1
20260503171520 57 73 0.9 3.5 0.00 0.00 0.00 29 1020.2
20260503171007 57 130 0.9 4.3 0.00 0.00 0.00 29 1020.3
20260503170508 57 159 0.9 4.3 0.00 0.00 0.00 28 1020.4
20260503151010 52 151 0.0 2.6 0.00 0.00 0.00 38 1021.3
20260503150507 52 57 0.0 1.7 0.00 0.00 0.00 35 1021.3
20260503131003 46 114 0.0 0.9 0.00 0.00 0.00 53 1020.9
20260503130508 45 97 0.0 0.9 0.00 0.00 0.00 55 1020.8
20260503110508 34 254 0.0 0.0 0.00 0.00 0.00 82 1020.3
20260503090508 35 254 0.0 0.0 0.00 0.00 0.00 80 1019.8
20260503081517 36 254 0.0 0.0 0.00 0.00 0.00 77 1019.4
20260503081008 36 254 0.0 0.0 0.00 0.00 0.00 77 1019.3
20260503080511 37 254 0.0 0.0 0.00 0.00 0.00 77 1019.3
20260503072506 38 254 0.0 0.0 0.00 0.00 0.00 73 1019.2
20260503072005 38 254 0.0 0.0 0.00 0.00 0.00 73 1019.2
20260503071516 38 254 0.0 0.0 0.00 0.00 0.00 72 1019.2
20260503071005 38 254 0.0 0.0 0.00 0.00 0.00 72 1019.2
20260503070505 38 254 0.0 0.0 0.00 0.00 0.00 71 1019.2
20260503055009 42 254 0.0 0.0 0.00 0.00 0.00 58 1019.3
20260503054504 42 254 0.0 0.0 0.00 0.00 0.00 57 1019.4
20260503054003 42 254 0.0 0.0 0.00 0.00 0.00 58 1019.5
20260503053502 42 254 0.0 0.9 0.00 0.00 0.00 59 1019.4
20260503053002 42 252 0.0 0.9 0.00 0.00 0.00 59 1019.4
20260503052503 42 271 0.0 0.0 0.00 0.00 0.00 57 1019.5
20260503052001 42 271 0.0 0.0 0.00 0.00 0.00 57 1019.4
20260503051507 43 271 0.0 0.0 0.00 0.00 0.00 57 1019.4
20260503051010 43 262 0.0 0.9 0.00 0.00 0.00 57 1019.5
20260503050505 43 262 0.0 0.9 0.00 0.00 0.00 57 1019.5
20260503050012 43 261 0.0 1.7 0.00 0.00 0.00 57 1019.5
20260503045510 43 255 0.0 1.7 0.00 0.00 0.00 56 1019.5
20260503045010 43 249 0.0 1.7 0.00 0.00 0.00 57 1019.4
20260503044545 43 281 0.0 2.6 0.00 0.00 0.00 56 1019.5
20260503044005 43 251 0.0 2.6 0.00 0.00 0.00 57 1019.5
20260503043508 43 251 0.0 2.6 0.00 0.00 0.00 57 1019.5
20260503043019 43 322 0.0 0.9 0.00 0.00 0.00 58 1019.5
20260503042502 43 257 0.0 1.7 0.00 0.00 0.00 57 1019.5
20260503042002 43 266 0.0 1.7 0.00 0.00 0.00 57 1019.5
20260503041504 43 296 0.0 1.7 0.00 0.00 0.00 57 1019.5
20260503041003 43 246 0.0 2.6 0.00 0.00 0.00 58 1019.4
20260503040511 43 273 0.0 2.6 0.00 0.00 0.00 58 1019.3
20260503040014 43 270 0.0 1.7 0.00 0.00 0.00 60 1019.3
20260503035506 43 250 0.0 0.9 0.00 0.00 0.00 62 1019.3
20260503035006 43 271 0.0 0.0 0.00 0.00 0.00 63 1019.3
20260503034514 43 271 0.0 0.0 0.00 0.00 0.00 64 1019.3
20260503034007 44 225 0.0 0.0 0.00 0.00 0.00 64 1019.2
20260503033507 44 199 0.0 0.0 0.00 0.00 0.00 63 1019.2
20260503033018 44 199 0.0 0.0 0.00 0.00 0.00 63 1019.2
20260503032505 44 199 0.0 0.0 0.00 0.00 0.00 64 1019.1
20260503032012 44 199 0.0 0.0 0.00 0.00 0.00 65 1019.1
20260503031524 44 199 0.0 0.0 0.00 0.00 0.00 62 1019.1
20260503031002 44 199 0.0 0.0 0.00 0.00 0.00 62 1019.1
20260503030503 44 199 0.0 0.0 0.00 0.00 0.00 62 1019.1
20260503030010 45 199 0.0 0.0 0.00 0.00 0.00 63 1019.1
20260503025505 45 199 0.0 0.0 0.00 0.00 0.00 61 1019.1
20260503025007 45 199 0.0 0.0 0.00 0.00 0.00 61 1019.0
20260503024509 45 199 0.0 0.9 0.00 0.00 0.00 62 1018.9
20260503024006 45 197 0.0 3.5 0.00 0.00 0.00 62 1018.9
20260503023509 45 193 0.0 3.5 0.00 0.00 0.00 63 1018.8
20260503023016 45 211 0.0 0.0 0.00 0.00 0.00 64 1018.8
20260503022506 45 211 0.0 0.0 0.00 0.00 0.00 65 1018.7
20260503022013 45 211 0.0 0.0 0.00 0.00 0.00 63 1018.6
20260503021527 46 211 0.0 0.0 0.00 0.00 0.00 63 1018.5
20260503021011 46 211 0.0 0.0 0.00 0.00 0.00 63 1018.4
20260503020512 46 212 0.0 0.0 0.00 0.00 0.00 63 1018.3
20260503020034 47 212 0.0 0.0 0.00 0.00 0.00 60 1018.3
20260503015512 47 211 0.0 0.0 0.00 0.00 0.00 61 1018.2
20260503015012 47 211 0.0 0.0 0.00 0.00 0.00 62 1018.2
20260503014531 48 0.0 0.0 0.00 0.00 0.00 59 1018.1
20260503014009 48 210 0.0 0.0 0.00 0.00 0.00 59 1018.1
20260503013507 48 211 0.0 0.0 0.00 0.00 0.00 58 1018.0
20260503013032 48 212 0.0 0.0 0.00 0.00 0.00 57 1018.0
20260503012506 48 211 0.0 0.0 0.00 0.00 0.00 35 1017.9
20260503012015 49 212 0.0 0.0 0.00 0.00 0.00 1017.9
20260503011528 49 211 0.0 0.0 0.00 0.00 0.00 35 1017.9
20260503011007 49 211 0.0 1.7 0.00 0.00 0.00 54 1017.8
20260503010510 49 211 0.0 3.5 0.00 0.00 0.00 53 1017.8
20260503010020 49 195 0.0 3.5 0.00 0.00 0.00 53 1017.7
20260503005509 49 187 0.0 1.7 0.00 0.00 0.00 53 1017.7
20260503005010 50 181 0.0 0.9 0.00 0.00 0.00 52 1017.6
20260503004526 50 167 0.0 0.0 0.00 0.00 0.00 53 1017.5
20260503004008 50 167 0.0 1.7 0.00 0.00 0.00 51 1017.5
20260503003504 50 207 0.0 1.7 0.00 0.00 0.00 50 1017.5
20260503003007 50 200 0.0 1.7 0.00 0.00 0.00 50 1017.4
20260503002503 50 192 0.0 3.5 0.00 0.00 0.00 49 1017.3
20260503002004 50 209 0.0 3.5 0.00 0.00 0.00 48 1017.3
20260503001516 51 174 0.0 1.7 0.00 0.00 0.00 49 1017.2
20260503001006 51 209 0.0 3.5 0.00 0.00 0.00 48 1017.1
20260503000506 51 224 0.0 3.5 0.00 0.00 0.00 48 1017.1
20260503000027 51 195 0.0 3.5 0.00 0.00 0.00 48 1017.0
20260502235507 51 202 0.9 7.0 0.00 0.00 0.00 45 1017.0
20260502235008 51 229 1.7 7.0 0.00 0.00 0.00 45 1017.0
20260502234542 51 246 0.9 5.2 0.00 0.00 0.00 47 1016.9
20260502234009 52 219 0.9 7.8 0.00 0.00 0.00 45 1016.8
20260502233509 52 284 0.9 7.8 0.00 0.00 0.00 46 1016.7
20260502233027 52 221 3.5 7.0 0.00 0.00 0.00 44 1016.8
20260502232507 52 200 1.7 5.2 0.00 0.00 0.00 45 1016.8
20260502232006 52 173 2.6 5.2 0.00 0.00 0.00 45 1016.8
20260502231511 52 291 0.9 4.3 0.00 0.00 0.00 44 1016.7
20260502231008 52 195 0.9 5.2 0.00 0.00 0.00 45 1016.8
20260502230507 52 221 1.7 7.0 0.00 0.00 0.00 44 1016.8
20260502230022 52 198 0.9 7.0 0.00 0.00 0.00 46 1016.8
20260502225508 52 222 0.0 5.2 0.00 0.00 0.00 46 1016.9
20260502225007 52 227 1.7 5.2 0.00 0.00 0.00 45 1016.8
20260502224521 52 229 0.9 5.2 0.00 0.00 0.00 47 1016.8
20260502224003 52 209 1.7 6.1 0.00 0.00 0.00 46 1017.0
20260502223503 52 206 1.7 7.8 0.00 0.00 0.00 44 1017.0
20260502223015 52 145 0.9 7.8 0.00 0.00 0.00 45 1017.0
20260502222503 52 240 3.5 7.8 0.00 0.00 0.00 46 1017.0
20260502222005 52 204 0.9 3.5 0.00 0.00 0.00 45 1017.1
20260502221510 52 170 0.0 6.1 0.00 0.00 0.00 46 1017.1
20260502221010 52 214 0.9 6.1 0.00 0.00 0.00 47 1017.1
20260502220508 52 134 0.0 3.5 0.00 0.00 0.00 46 1017.0
20260502220014 52 258 0.9 4.3 0.00 0.00 0.00 44 1017.0
20260502215507 52 242 0.9 4.3 0.00 0.00 0.00 46 1016.9
20260502215008 52 250 0.0 5.2 0.00 0.00 0.00 46 1016.8
20260502214504 52 310 1.7 5.2 0.00 0.00 0.00 46 1016.8
20260502214007 53 249 0.9 6.1 0.00 0.00 0.00 46 1016.7
20260502213503 53 244 1.7 8.7 0.00 0.00 0.00 46 1016.7
20260502213004 53 224 2.6 8.7 0.00 0.00 0.00 46 1016.7
20260502212503 53 155 1.7 7.0 0.00 0.00 0.00 45 1016.7
20260502212005 53 240 0.9 4.3 0.00 0.00 0.00 45 1016.6
20260502211505 53 195 0.9 5.2 0.00 0.00 0.00 46 1016.7
20260502211005 53 200 1.7 5.2 0.00 0.00 0.00 45 1016.6
20260502210507 53 213 0.9 6.1 0.00 0.00 0.00 45 1016.7
20260502210010 53 221 1.7 6.1 0.00 0.00 0.00 46 1016.7
20260502205508 53 248 0.9 8.7 0.00 0.00 0.00 45 1016.7
20260502205009 53 227 0.9 8.7 0.00 0.00 0.00 45 1016.7
20260502204516 53 235 2.6 6.1 0.00 0.00 0.00 43 1016.8
20260502204007 54 260 2.6 7.0 0.00 0.00 0.00 44 1016.7
20260502203506 54 162 0.0 7.8 0.00 0.00 0.00 44 1016.8
20260502203004 54 180 2.6 7.8 0.00 0.00 0.00 43 1016.9
20260502202503 54 192 2.6 6.1 0.00 0.00 0.00 45 1017.0
20260502202004 53 200 0.0 6.1 0.00 0.00 0.00 44 1016.9
20260502201503 53 217 1.7 6.1 0.00 0.00 0.00 43 1016.9
20260502201004 53 199 2.6 5.2 0.00 0.00 0.00 46 1017.0